NI4CE-10 Weather Reports


time (UTC)temp
F
wind
direction
speed
knots
gust
knots
rain 1hr
in
rain 24hr
in
rain mn
in
humidity
%
barometer
mb
20260904201242 95 253 7.8 9.6 0.00 0.00 0.00 100 1015.8
20260904200742 96 233 4.3 7.0 0.00 0.00 0.00 100 1015.7
20260904200244 95 237 4.3 10.4 0.00 0.00 0.00 100 1015.8
20260904200114 95 255 7.0 7.0 0.00 0.00 0.00 100 1015.7
20260904195742 95 255 7.0 7.0 0.00 0.00 0.00 100 1015.7
20260904195537 94 270 5.2 8.7 0.00 0.00 0.00 100 1015.8
20260904195242 94 270 5.2 8.7 0.00 0.00 0.00 100 1015.8
20260904194742 94 272 7.0 7.8 0.00 0.00 0.00 100 1015.8
20260904194242 95 260 2.6 8.7 0.00 0.00 0.00 100 1015.7
20260904193743 95 253 3.5 8.7 0.00 0.00 0.00 100 1016.0
20260904193243 96 243 4.3 7.8 0.00 0.00 0.00 100 1016.0
20260904192743 96 227 5.2 9.6 0.00 0.00 0.00 100 1016.0
20260904192447 97 241 3.5 7.8 0.00 0.00 0.00 100 1016.1
20260904192243 97 241 3.5 7.8 0.00 0.00 0.00 100 1016.1
20260904191911 97 250 6.1 7.8 0.00 0.00 0.00 100 1016.3
20260904191743 97 250 6.1 7.8 0.00 0.00 0.00 100 1016.3
20260904191243 98 279 5.2 7.8 0.00 0.00 0.00 100 1016.4
20260904190743 98 246 5.2 9.6 0.00 0.00 0.00 100 1016.4
20260904190533 98 243 7.0 11.3 0.00 0.01 0.00 100 1016.4
20260904190243 98 243 7.0 11.3 0.00 0.01 0.00 100 1016.4
20260904185943 99 241 3.5 11.3 0.00 0.01 0.00 100 1016.4
20260904185743 99 241 3.5 11.3 0.00 0.01 0.00 100 1016.4
20260904185243 99 215 7.0 11.3 0.00 0.01 0.00 100 1016.5
20260904184953 100 260 6.1 9.6 0.00 0.01 0.00 100 1016.6
20260904184743 100 260 6.1 9.6 0.00 0.01 0.00 100 1016.6
20260904184613 98 229 5.2 13.9 0.00 0.01 0.00 100 1016.6
20260904184243 98 229 5.2 13.9 0.00 0.01 0.00 100 1016.6
20260904183909 98 161 3.5 8.7 0.00 0.01 0.00 100 1016.6
20260904183743 98 161 3.5 8.7 0.00 0.01 0.00 100 1016.6
20260904183501 98 236 2.6 7.8 0.00 0.01 0.00 100 1016.6
20260904183243 98 236 2.6 7.8 0.00 0.01 0.00 100 1016.6
20260904182942 99 217 4.3 9.6 0.00 0.01 0.00 100 1016.6
20260904182743 99 217 4.3 9.6 0.00 0.01 0.00 100 1016.6
20260904182442 100 264 7.8 8.7 0.00 0.01 0.00 100 1016.6
20260904182243 100 264 7.8 8.7 0.00 0.01 0.00 100 1016.6
20260904181946 103 241 2.6 6.1 0.00 0.01 0.00 100 1016.7
20260904181743 103 241 2.6 6.1 0.00 0.01 0.00 100 1016.7
20260904181243 103 223 5.2 6.1 0.00 0.01 0.00 100 1016.7
20260904180944 102 227 4.3 9.6 0.00 0.01 0.00 100 1016.9
20260904180743 102 227 4.3 9.6 0.00 0.01 0.00 100 1016.9
20260904180549 101 239 5.2 8.7 0.00 0.06 0.00 100 1017.0
20260904180517 101 239 5.2 8.7 0.00 0.06 0.00 100 1017.0
20260904180244 101 239 5.2 8.7 0.00 0.06 0.00 100 1017.0
20260904180032 104 208 6.1 11.3 0.00 0.06 0.00 100 1017.1
20260904175743 104 208 6.1 11.3 0.00 0.06 0.00 100 1017.1
20260904175243 108 236 9.6 11.3 0.00 0.06 0.00 100 1017.1
20260904174743 104 240 4.3 9.6 0.00 0.06 0.00 100 1017.0
20260904174603 104 271 5.2 8.7 0.00 0.06 0.00 100 1017.0
20260904174243 104 271 5.2 8.7 0.00 0.06 0.00 100 1017.0
20260904174117 109 258 3.5 8.7 0.00 0.06 0.00 100 1017.1
20260904173743 109 258 3.5 8.7 0.00 0.06 0.00 100 1017.1
20260904173243 121 222 6.1 8.7 0.00 0.06 0.00 100 1017.1
20260904173119 111 307 1.7 9.6 0.00 0.06 0.00 100 1017.1
20260904172743 111 307 1.7 9.6 0.00 0.06 0.00 100 1017.1
20260904172652 106 216 3.5 10.4 0.00 0.06 0.00 100 1017.1
20260904172243 106 216 3.5 10.4 0.00 0.06 0.00 100 1017.1
20260904172152 116 233 9.6 12.2 0.00 0.06 0.00 100 1017.2
20260904171743 116 233 9.6 12.2 0.00 0.06 0.00 100 1017.2
20260904171243 123 222 6.1 11.3 0.00 0.06 0.00 100 1017.3
20260904171152 124 251 7.8 9.6 0.00 0.06 0.00 100 1017.3
20260904170743 124 251 7.8 9.6 0.00 0.06 0.00 100 1017.3
20260904170616 119 206 5.2 7.8 0.00 0.06 0.00 100 1017.4
20260904170243 119 206 5.2 7.8 0.00 0.06 0.00 100 1017.4
20260904165743 118 244 3.5 9.6 0.00 0.06 0.00 100 1017.4
20260904165600 123 234 2.6 8.7 0.00 0.06 0.00 100 1017.4
20260904165243 123 234 2.6 8.7 0.00 0.06 0.00 100 1017.4
20260904165022 120 227 3.5 9.6 0.00 0.06 0.00 100 1017.4
20260904164743 120 227 3.5 9.6 0.00 0.06 0.00 100 1017.4
20260904164359 114 213 8.7 8.7 0.00 0.06 0.00 100 1017.4
20260904164243 114 213 8.7 8.7 0.00 0.06 0.00 100 1017.4
20260904163743 119 223 7.8 9.6 0.00 0.06 0.00 100 1017.5
20260904163717 109 196 6.1 7.8 0.00 0.06 0.00 100 1017.6
20260904163243 109 196 6.1 7.8 0.00 0.06 0.00 100 1017.6
20260904163031 118 227 5.2 7.8 0.00 0.06 0.00 100 1017.7
20260904162743 118 227 5.2 7.8 0.00 0.06 0.00 100 1017.7
20260904162537 118 151 3.5 9.6 0.00 0.06 0.00 100 1017.8
20260904162243 118 151 3.5 9.6 0.00 0.06 0.00 100 1017.8
20260904161743 117 232 7.0 13.0 0.00 0.06 0.00 100 1017.8
20260904161613 116 219 2.6 11.3 0.00 0.06 0.00 100 1017.8
20260904161243 116 219 2.6 11.3 0.00 0.06 0.00 100 1017.8
20260904160743 116 195 6.1 7.8 0.00 0.06 0.00 100 1017.8
20260904160243 111 195 4.3 8.7 0.00 0.06 0.00 100 1017.9
20260904160116 112 243 6.1 9.6 0.00 0.06 0.00 100 1017.8
20260904155743 112 243 6.1 9.6 0.00 0.06 0.00 100 1017.8
20260904155602 115 248 6.1 9.6 0.00 0.06 0.00 100 1017.9
20260904155243 115 248 6.1 9.6 0.00 0.06 0.00 100 1017.9
20260904155058 112 192 4.3 10.4 0.00 0.06 0.00 100 1017.9
20260904154743 112 192 4.3 10.4 0.00 0.06 0.00 100 1017.9
20260904154627 105 215 7.0 9.6 0.00 0.06 0.00 100 1017.9
20260904154244 105 215 7.0 9.6 0.00 0.06 0.00 100 1017.9
20260904154031 102 208 7.0 11.3 0.00 0.06 0.00 100 1017.9
20260904153744 102 208 7.0 11.3 0.00 0.06 0.00 100 1017.9
20260904153244 109 182 6.1 7.8 0.00 0.06 0.00 100 1017.9
20260904152744 104 261 1.7 7.8 0.00 0.06 0.00 100 1017.9
20260904152544 100 234 5.2 7.0 0.00 0.06 0.00 100 1017.8
20260904152244 100 234 5.2 7.0 0.00 0.06 0.00 100 1017.8
20260904152130 100 208 6.1 7.8 0.00 0.06 0.00 100 1017.9
20260904151744 100 208 6.1 7.8 0.00 0.06 0.00 100 1017.9
20260904151537 103 244 6.1 7.8 0.00 0.06 0.00 100 1017.8
20260904151244 103 244 6.1 7.8 0.00 0.06 0.00 100 1017.8
20260904151015 100 229 6.1 7.0 0.00 0.06 0.00 100 1017.7
20260904150744 100 229 6.1 7.0 0.00 0.06 0.00 100 1017.7
20260904150556 99 187 4.3 7.0 0.00 0.06 0.00 100 1017.7
20260904150244 99 187 4.3 7.0 0.00 0.06 0.00 100 1017.7
20260904150034 98 217 5.2 7.0 0.00 0.06 0.00 100 1017.6
20260904145744 98 217 5.2 7.0 0.00 0.06 0.00 100 1017.6
20260904145556 96 203 5.2 7.0 0.00 0.06 0.00 100 1017.4
20260904145503 96 203 5.2 7.0 0.00 0.06 0.00 100 1017.4
20260904145244 96 203 5.2 7.0 0.00 0.06 0.00 100 1017.4
20260904144744 97 202 4.3 7.8 0.00 0.06 0.00 100 1017.5
20260904144559 96 232 2.6 8.7 0.00 0.06 0.00 100 1017.5
20260904144244 96 232 2.6 8.7 0.00 0.06 0.00 100 1017.5
20260904143956 95 213 7.0 7.8 0.00 0.06 0.00 100 1017.5
20260904143744 95 213 7.0 7.8 0.00 0.06 0.00 100 1017.5
20260904143244 95 210 5.2 7.0 0.00 0.06 0.00 100 1017.5
20260904143030 95 168 6.1 7.8 0.00 0.06 0.00 100 1017.5
20260904142744 95 168 6.1 7.8 0.00 0.06 0.00 100 1017.5
20260904142611 97 125 3.5 7.0 0.00 0.06 0.00 100 1017.4
20260904142244 97 125 3.5 7.0 0.00 0.06 0.00 100 1017.4
20260904142000 98 144 1.7 5.2 0.00 0.06 0.00 100 1017.3
20260904141744 98 144 1.7 5.2 0.00 0.06 0.00 100 1017.3
20260904141615 99 216 2.6 6.1 0.00 0.06 0.00 100 1017.3
20260904141244 99 216 2.6 6.1 0.00 0.06 0.00 100 1017.3
20260904141122 99 163 1.7 6.1 0.00 0.06 0.00 100 1017.4
20260904140744 99 163 1.7 6.1 0.00 0.06 0.00 100 1017.4
20260904140244 100 196 4.3 6.1 0.00 0.06 0.00 100 1017.3
20260904135918 100 189 4.3 7.8 0.00 0.06 0.00 100 1017.4
20260904135744 100 189 4.3 7.8 0.00 0.06 0.00 100 1017.4
20260904135446 100 233 5.2 6.1 0.00 0.06 0.00 100 1017.3
20260904135244 100 233 5.2 6.1 0.00 0.06 0.00 100 1017.3
20260904135000 100 201 4.3 5.2 0.00 0.06 0.00 100 1017.2
20260904134744 100 201 4.3 5.2 0.00 0.06 0.00 100 1017.2
20260904134244 100 222 3.5 5.2 0.00 0.06 0.00 100 1017.1
20260904134007 100 118 0.9 6.1 0.00 0.06 0.00 100 1017.1
20260904133744 100 118 0.9 6.1 0.00 0.06 0.00 100 1017.1
20260904133613 100 187 2.6 4.3 0.00 0.06 0.00 100 1017.2
20260904133244 100 187 2.6 4.3 0.00 0.06 0.00 100 1017.2
20260904132744 98 253 1.7 7.0 0.00 0.06 0.00 100 1017.2
20260904132244 97 174 3.5 6.1 0.00 0.06 0.00 100 1017.1
20260904131856 96 191 2.6 5.2 0.00 0.06 0.00 100 1017.0
20260904131744 96 191 2.6 5.2 0.00 0.06 0.00 100 1017.0
20260904131359 96 246 1.7 5.2 0.00 0.06 0.00 100 1016.9
20260904131244 96 246 1.7 5.2 0.00 0.06 0.00 100 1016.9
20260904130744 95 147 0.0 4.3 0.00 0.06 0.00 100 1016.9
20260904130244 93 156 2.6 6.1 0.00 0.06 0.00 100 1016.9
20260904125744 92 167 2.6 8.7 0.00 0.06 0.00 100 1016.9
20260904125244 91 188 3.5 4.3 0.00 0.06 0.00 100 1016.8
20260904124744 90 195 0.9 4.3 0.00 0.06 0.00 100 1016.8
20260904124522 87 172 2.6 5.2 0.00 0.06 0.00 100 1016.8
20260904124244 87 172 2.6 5.2 0.00 0.06 0.00 100 1016.8
20260904123925 83 213 4.3 4.3 0.00 0.06 0.00 100 1016.7
20260904123744 83 213 4.3 4.3 0.00 0.06 0.00 100 1016.7
20260904123414 82 174 2.6 2.6 0.00 0.06 0.00 100 1016.6
20260904123244 82 174 2.6 2.6 0.00 0.06 0.00 100 1016.6
20260904122922 80 191 1.7 4.3 0.00 0.06 0.00 100 1016.6
20260904122744 80 191 1.7 4.3 0.00 0.06 0.00 100 1016.6
20260904122244 80 135 3.5 3.5 0.00 0.06 0.00 100 1016.6
20260904121932 80 135 0.0 2.6 0.00 0.06 0.00 100 1016.7
20260904121744 80 135 0.0 2.6 0.00 0.06 0.00 100 1016.7
20260904121244 80 140 1.7 2.6 0.00 0.06 0.00 100 1016.7
20260904120744 79 136 0.0 0.0 0.00 0.06 0.00 100 1016.6
20260904120444 78 136 0.0 0.9 0.00 0.07 0.00 100 1016.5
20260904120244 78 136 0.0 0.9 0.00 0.07 0.00 100 1016.5
20260904115744 77 116 0.0 0.0 0.00 0.07 0.00 100 1016.4
20260904115245 77 116 0.0 0.0 0.00 0.07 0.00 100 1016.4
20260904115023 77 116 0.0 0.0 0.00 0.07 0.00 100 1016.3
20260904114745 77 116 0.0 0.0 0.00 0.07 0.00 100 1016.3
20260904114245 77 116 0.0 0.0 0.00 0.07 0.00 100 1016.4
20260904114013 77 116 0.0 0.0 0.00 0.07 0.00 100 1016.3
20260904113745 77 116 0.0 0.0 0.00 0.07 0.00 100 1016.3
20260904113415 77 116 0.0 0.0 0.00 0.07 0.00 100 1016.3
20260904113245 77 116 0.0 0.0 0.00 0.07 0.00 100 1016.3
20260904112953 77 116 0.0 0.0 0.00 0.07 0.00 100 1016.3
20260904112745 77 116 0.0 0.0 0.00 0.07 0.00 100 1016.3
20260904112245 76 116 0.0 0.0 0.00 0.07 0.00 100 1016.2
20260904111745 76 116 0.0 0.0 0.00 0.07 0.00 100 1016.1
20260904111245 76 116 0.0 0.0 0.00 0.07 0.00 100 1016.2
20260904110745 76 116 0.0 0.9 0.00 0.07 0.00 100 1016.1
20260904110245 76 130 0.0 0.0 0.00 0.07 0.00 100 1016.0
20260904105745 76 130 0.0 0.0 0.00 0.07 0.00 100 1016.0
20260904105245 76 130 0.0 0.0 0.00 0.07 0.00 100 1016.0
20260904104745 76 130 0.0 0.0 0.00 0.07 0.00 100 1016.0
20260904104245 76 130 0.0 0.0 0.00 0.07 0.00 100 1016.0
20260904103745 76 130 0.0 0.0 0.00 0.07 0.00 100 1015.9
20260904103245 76 130 0.0 0.0 0.00 0.07 0.00 100 1016.0
20260904102745 76 130 0.0 0.0 0.00 0.07 0.00 100 1015.9
20260904102505 76 130 0.0 0.9 0.00 0.07 0.00 100 1015.9
20260904102245 76 130 0.0 0.9 0.00 0.07 0.00 100 1015.9
20260904101745 76 143 0.0 0.0 0.00 0.07 0.00 100 1015.8
20260904101346 76 143 0.0 0.0 0.00 0.07 0.00 100 1015.7
20260904101245 76 143 0.0 0.0 0.00 0.07 0.00 100 1015.7
20260904100943 76 143 0.0 0.0 0.00 0.07 0.00 100 1015.7
20260904100745 76 143 0.0 0.0 0.00 0.07 0.00 100 1015.7
20260904100443 76 143 0.0 0.0 0.00 0.07 0.00 100 1015.5
20260904100245 76 143 0.0 0.0 0.00 0.07 0.00 100 1015.5
20260904100031 76 143 0.0 0.0 0.00 0.07 0.00 100 1015.5
20260904095745 76 143 0.0 0.0 0.00 0.07 0.00 100 1015.5
20260904095521 76 143 0.0 0.0 0.00 0.07 0.00 100 1015.4
20260904095245 76 143 0.0 0.0 0.00 0.07 0.00 100 1015.4
20260904094745 76 143 0.0 0.0 0.00 0.07 0.00 100 1015.2
20260904094245 76 143 0.0 0.0 0.00 0.07 0.00 100 1015.3
20260904093745 76 143 0.0 0.0 0.00 0.07 0.00 100 1015.3
20260904093245 76 143 0.0 0.0 0.00 0.07 0.00 100 1015.2
20260904092955 76 143 0.0 0.0 0.00 0.07 0.00 100 1015.1
20260904092745 76 143 0.0 0.0 0.00 0.07 0.00 100 1015.1
20260904092545 76 143 0.0 0.0 0.00 0.07 0.00 100 1015.2
20260904092245 76 143 0.0 0.0 0.00 0.07 0.00 100 1015.2
20260904091745 76 143 0.0 0.0 0.00 0.07 0.00 100 1015.2
20260904091245 76 143 0.0 0.0 0.00 0.07 0.00 100 1015.2
20260904090942 76 143 0.0 0.0 0.00 0.07 0.00 100 1015.2
20260904090745 76 143 0.0 0.0 0.00 0.07 0.00 100 1015.2
20260904090525 76 143 0.0 0.0 0.00 0.07 0.00 100 1015.2
20260904090245 76 143 0.0 0.0 0.00 0.07 0.00 100 1015.2
20260904085745 76 143 0.0 0.0 0.00 0.07 0.00 100 1015.1
20260904085245 76 143 0.0 0.0 0.00 0.07 0.00 100 1015.1
20260904084745 77 143 0.0 0.0 0.00 0.07 0.00 100 1015.1
20260904084245 76 143 0.0 0.0 0.00 0.07 0.00 100 1015.2
20260904083745 76 143 0.0 0.0 0.00 0.07 0.00 100 1015.2
20260904083245 77 143 0.0 0.0 0.00 0.07 0.00 100 1015.3
20260904082745 77 143 0.0 0.0 0.00 0.07 0.00 100 1015.2
20260904082245 76 143 0.0 0.0 0.00 0.07 0.00 100 1015.4
20260904081954 76 143 0.0 0.0 0.00 0.07 0.00 100 1015.3
20260904081745 76 143 0.0 0.0 0.00 0.07 0.00 100 1015.3
20260904081245 77 143 0.0 0.0 0.00 0.07 0.00 100 1015.3
20260904080745 77 143 0.0 0.0 0.00 0.07 0.00 100 1015.2
20260904080534 77 143 0.0 0.0 0.00 0.07 0.00 100 1015.3
20260904080246 77 143 0.0 0.0 0.00 0.07 0.00 100 1015.3
20260904080021 77 143 0.0 0.0 0.00 0.07 0.00 100 1015.3
20260904075746 77 143 0.0 0.0 0.00 0.07 0.00 100 1015.3
20260904075245 77 143 0.0 0.0 0.00 0.07 0.00 100 1015.3
20260904075145 77 143 0.0 0.0 0.00 0.07 0.00 100 1015.2
20260904074746 77 143 0.0 0.0 0.00 0.07 0.00 100 1015.2
20260904074532 77 143 0.0 0.0 0.00 0.07 0.00 100 1015.2
20260904074246 77 143 0.0 0.0 0.00 0.07 0.00 100 1015.2
20260904074008 77 143 0.0 0.0 0.00 0.07 0.00 100 1015.1
20260904073746 77 143 0.0 0.0 0.00 0.07 0.00 100 1015.1
20260904073449 77 143 0.0 0.0 0.00 0.07 0.00 100 1015.1
20260904073246 77 143 0.0 0.0 0.00 0.07 0.00 100 1015.1
20260904073032 77 143 0.0 0.0 0.00 0.07 0.00 100 1015.2
20260904072746 77 143 0.0 0.0 0.00 0.07 0.00 100 1015.2
20260904072550 77 143 0.0 0.0 0.00 0.07 0.00 100 1015.2
20260904072246 77 143 0.0 0.0 0.00 0.07 0.00 100 1015.2
20260904072016 77 143 0.0 0.0 0.00 0.07 0.00 100 1015.1
20260904071746 77 143 0.0 0.0 0.00 0.07 0.00 100 1015.1
20260904071246 77 143 0.0 0.0 0.00 0.07 0.00 100 1015.1
20260904071001 77 143 0.0 0.0 0.00 0.07 0.00 100 1015.2
20260904070746 77 143 0.0 0.0 0.00 0.07 0.00 100 1015.2
20260904070531 77 143 0.0 0.0 0.00 0.07 0.00 100 1015.3
20260904070246 77 143 0.0 0.0 0.00 0.07 0.00 100 1015.3
20260904065953 77 143 0.0 0.0 0.00 0.07 0.00 100 1015.3
20260904065746 77 143 0.0 0.0 0.00 0.07 0.00 100 1015.3
20260904065615 77 143 0.0 0.0 0.00 0.07 0.00 100 1015.4
20260904065246 77 143 0.0 0.0 0.00 0.07 0.00 100 1015.4
20260904065031 77 143 0.0 0.0 0.00 0.07 0.00 100 1015.4
20260904064746 77 143 0.0 0.0 0.00 0.07 0.00 100 1015.4
20260904064445 77 143 0.0 0.0 0.00 0.07 0.00 100 1015.2
20260904064246 77 143 0.0 0.0 0.00 0.07 0.00 100 1015.2
20260904063746 77 143 0.0 0.0 0.00 0.07 0.00 100 1015.3
20260904063246 77 143 0.0 0.0 0.00 0.07 0.00 100 1015.4
20260904063024 77 143 0.0 0.0 0.00 0.07 0.00 100 1015.5
20260904062746 77 143 0.0 0.0 0.00 0.07 0.00 100 1015.5
20260904062613 77 143 0.0 0.0 0.00 0.07 0.00 100 1015.5
20260904062246 77 143 0.0 0.0 0.00 0.07 0.00 100 1015.5
20260904061746 77 143 0.0 0.0 0.00 0.07 0.00 100 1015.4
20260904061246 77 143 0.0 0.0 0.00 0.07 0.00 100 1015.5
20260904061032 77 143 0.0 0.0 0.00 0.07 0.00 100 1015.6
20260904060746 77 143 0.0 0.0 0.00 0.07 0.00 100 1015.6
20260904060246 77 143 0.0 0.0 0.00 0.07 0.00 100 1015.6
20260904055746 77 143 0.0 0.0 0.00 0.07 0.00 100 1015.6
20260904055246 77 143 0.0 0.0 0.00 0.07 0.00 100 1015.7
20260904054746 77 143 0.0 0.0 0.00 0.07 0.00 100 1015.6
20260904054246 77 143 0.0 0.9 0.00 0.07 0.00 100 1015.7
20260904053746 77 144 0.0 1.7 0.00 0.07 0.00 100 1015.8
20260904053246 77 105 0.0 0.0 0.00 0.07 0.00 100 1015.8
20260904053108 77 105 0.0 0.9 0.00 0.07 0.00 100 1015.8
20260904052746 77 105 0.0 0.9 0.00 0.07 0.00 100 1015.8
20260904052246 77 105 0.0 0.9 0.00 0.07 0.00 100 1015.9
20260904052022 78 163 0.0 0.0 0.00 0.07 0.00 100 1016.0
20260904051746 78 163 0.0 0.0 0.00 0.07 0.00 100 1016.0
20260904051511 77 163 0.0 0.0 0.00 0.07 0.00 100 1016.1
20260904051246 77 163 0.0 0.0 0.00 0.07 0.00 100 1016.1
20260904051101 78 163 0.0 0.0 0.00 0.07 0.00 100 1016.1
20260904050746 78 163 0.0 0.0 0.00 0.07 0.00 100 1016.1
20260904050530 78 163 0.0 0.0 0.00 0.07 0.00 100 1016.2
20260904050246 78 163 0.0 0.0 0.00 0.07 0.00 100 1016.2
20260904045746 78 163 0.0 0.0 0.00 0.07 0.00 100 1016.2
20260904045246 78 163 0.0 0.0 0.00 0.07 0.07 100 1016.1
20260904044746 78 163 0.0 0.0 0.00 0.07 0.07 100 1016.1
20260904044556 78 163 0.0 0.0 0.00 0.07 0.07 100 1016.2
20260904044246 78 163 0.0 0.0 0.00 0.07 0.07 100 1016.2
20260904043746 78 163 0.0 0.0 0.00 0.07 0.07 100 1016.2
20260904043532 78 163 0.0 0.0 0.00 0.07 0.07 100 1016.3
20260904043246 78 163 0.0 0.0 0.00 0.07 0.07 100 1016.3
20260904043036 78 163 0.0 0.0 0.00 0.07 0.07 100 1016.3
20260904042746 78 163 0.0 0.0 0.00 0.07 0.07 100 1016.3
20260904042246 78 163 0.0 0.0 0.00 0.07 0.07 100 1016.4
20260904041746 78 163 0.0 0.0 0.00 0.07 0.07 100 1016.4
20260904041246 78 163 0.0 0.0 0.00 0.07 0.07 100 1016.3
20260904040746 78 163 0.0 0.0 0.00 0.07 0.07 100 1016.3
20260904040246 78 163 0.0 0.0 0.00 0.08 0.07 100 1016.3
20260904040002 78 163 0.0 0.0 0.00 0.08 0.07 100 1016.3
20260904035746 78 163 0.0 0.0 0.00 0.08 0.07 100 1016.3
20260904035247 78 163 0.0 0.0 0.00 0.08 0.07 100 1016.3
20260904035005 78 163 0.0 0.0 0.00 0.08 0.07 100 1016.3
20260904034747 78 163 0.0 0.0 0.00 0.08 0.07 100 1016.3
20260904034555 78 163 0.0 0.0 0.00 0.08 0.07 100 1016.4
20260904034247 78 163 0.0 0.0 0.00 0.08 0.07 100 1016.4
20260904033747 78 163 0.0 0.0 0.00 0.08 0.07 100 1016.4
20260904033247 78 163 0.0 0.0 0.00 0.08 0.07 100 1016.4
20260904033002 78 163 0.0 0.0 0.00 0.08 0.07 100 1016.4
20260904032747 78 163 0.0 0.0 0.00 0.08 0.07 100 1016.4
20260904032247 78 163 0.0 0.0 0.00 0.08 0.07 100 1016.3
20260904032012 78 163 0.0 0.0 0.00 0.08 0.07 100 1016.3
20260904031747 78 163 0.0 0.0 0.00 0.08 0.07 100 1016.3
20260904031456 78 163 0.0 0.0 0.00 0.08 0.07 100 1016.3
20260904031247 78 163 0.0 0.0 0.00 0.08 0.07 100 1016.3
20260904030747 78 163 0.0 0.0 0.00 0.08 0.07 100 1016.2
20260904030247 78 163 0.0 0.0 0.00 0.11 0.07 100 1016.3
20260904025747 78 163 0.0 0.0 0.00 0.11 0.07 100 1016.2
20260904025425 78 163 0.0 1.7 0.00 0.11 0.07 100 1016.1
20260904025247 78 163 0.0 1.7 0.00 0.11 0.07 100 1016.1
20260904025034 78 163 0.0 2.6 0.00 0.11 0.07 100 1016.0
20260904024747 78 163 0.0 2.6 0.00 0.11 0.07 100 1016.0
20260904024247 78 118 0.0 2.6 0.00 0.11 0.07 100 1016.0
20260904023747 78 150 1.7 3.5 0.00 0.11 0.07 100 1016.0
20260904023247 78 177 0.0 0.0 0.00 0.11 0.07 100 1016.0
20260904022747 78 177 0.0 0.0 0.00 0.11 0.07 100 1016.0
20260904022247 78 177 0.0 0.0 0.00 0.11 0.07 100 1016.1
20260904021747 78 177 0.0 2.6 0.00 0.11 0.07 100 1016.1
20260904021247 78 182 0.0 3.5 0.00 0.11 0.07 100 1016.3
20260904021052 78 150 1.7 3.5 0.00 0.11 0.07 100 1016.4
20260904020747 78 150 1.7 3.5 0.00 0.11 0.07 100 1016.4
20260904020247 78 171 0.0 5.2 0.00 0.12 0.07 100 1016.4
20260904015747 78 102 3.5 7.8 0.00 0.12 0.07 100 1016.3
20260904015612 78 126 1.7 7.0 0.00 0.12 0.07 100 1016.2
20260904015247 78 126 1.7 7.0 0.00 0.12 0.07 100 1016.2
20260904014958 78 150 3.5 7.8 0.00 0.12 0.07 100 1016.3
20260904014747 78 150 3.5 7.8 0.00 0.12 0.07 100 1016.3
20260904014504 79 123 0.0 5.2 0.00 0.12 0.07 100 1016.3
20260904014247 79 123 0.0 5.2 0.00 0.12 0.07 100 1016.3
20260904013747 79 133 2.6 7.0 0.00 0.12 0.07 100 1016.3
20260904013505 79 113 2.6 7.0 0.00 0.12 0.07 100 1016.2
20260904013247 79 113 2.6 7.0 0.00 0.12 0.07 100 1016.2
20260904013031 79 98 4.3 6.1 0.00 0.12 0.07 100 1016.1
20260904012747 79 98 4.3 6.1 0.00 0.12 0.07 100 1016.1
20260904012247 79 106 5.2 5.2 0.00 0.12 0.07 100 1016.2
20260904012128 79 80 2.6 4.3 0.00 0.12 0.07 100 1016.2
20260904011747 79 80 2.6 4.3 0.00 0.12 0.07 100 1016.2
20260904011247 79 129 1.7 6.1 0.00 0.12 0.07 100 1016.1
20260904010747 79 92 2.6 4.3 0.00 0.12 0.07 100 1016.2
20260904010247 80 136 4.3 6.1 0.00 0.12 0.07 100 1016.1
20260904005747 79 126 2.6 5.2 0.00 0.12 0.07 100 1016.0
20260904005247 80 95 2.6 2.6 0.00 0.12 0.07 100 1015.9
20260904005013 80 59 0.0 0.0 0.00 0.12 0.07 100 1015.8
20260904004747 80 59 0.0 0.0 0.00 0.12 0.07 100 1015.8
20260904004247 80 59 0.0 0.0 0.00 0.12 0.07 100 1015.8
20260904003747 80 59 0.0 2.6 0.00 0.12 0.07 100 1015.6
20260904003247 80 53 0.0 3.5 0.00 0.12 0.07 100 1015.4
20260904002820 80 108 0.9 4.3 0.00 0.12 0.07 100 1015.5
20260904002747 80 108 0.9 4.3 0.00 0.12 0.07 100 1015.5
20260904002247 80 99 2.6 5.2 0.00 0.12 0.07 100 1015.6
20260904002053 80 70 1.7 4.3 0.00 0.12 0.07 100 1015.5
20260904001747 80 70 1.7 4.3 0.00 0.12 0.07 100 1015.5
20260904001531 80 75 1.7 3.5 0.00 0.12 0.07 100 1015.5
20260904001247 80 75 1.7 3.5 0.00 0.12 0.07 100 1015.5
20260904000747 80 80 3.5 3.5 0.00 0.12 0.07 100 1015.5
20260904000422 80 75 1.7 2.6 0.00 0.13 0.07 100 1015.4
20260904000248 80 75 1.7 2.6 0.00 0.13 0.07 100 1015.4
20260903235747 80 67 1.7 3.5 0.00 0.13 0.07 100 1015.5
20260903235248 80 102 1.7 2.6 0.00 0.13 0.07 100 1015.4
20260903234748 80 108 0.9 2.6 0.00 0.13 0.07 100 1015.5
20260903234248 81 153 0.9 0.9 0.00 0.13 0.07 100 1015.4
20260903233748 81 147 0.0 0.9 0.00 0.13 0.07 100 1015.4
20260903233248 81 189 0.0 3.5 0.00 0.13 0.07 100 1015.4
20260903232748 81 168 2.6 3.5 0.00 0.13 0.07 100 1015.3
20260903232248 80 140 0.9 3.5 0.00 0.13 0.07 100 1015.3
20260903232058 81 170 1.7 7.0 0.00 0.13 0.07 100 1015.3
20260903231748 81 170 1.7 7.0 0.00 0.13 0.07 100 1015.3
20260903231248 81 243 4.3 6.1 0.00 0.13 0.07 100 1015.5
20260903231034 81 236 3.5 5.2 0.00 0.13 0.07 100 1015.5
20260903230748 81 236 3.5 5.2 0.00 0.13 0.07 100 1015.5
20260903230248 82 168 0.0 0.0 0.00 0.13 0.07 100 1015.3
20260903230020 82 168 0.0 0.0 0.00 0.14 0.07 100 1015.4
20260903225748 82 168 0.0 0.0 0.00 0.14 0.07 100 1015.4
20260903225248 82 175 0.0 2.6 0.00 0.14 0.07 100 1015.4
20260903224748 82 154 0.0 0.0 0.00 0.14 0.07 100 1015.4
20260903224248 82 154 0.0 1.7 0.00 0.14 0.07 100 1015.2
20260903223748 82 195 1.7 1.7 0.00 0.14 0.07 100 1015.2
20260903223527 82 168 0.9 2.6 0.00 0.14 0.07 100 1015.1
20260903223248 82 168 0.9 2.6 0.00 0.14 0.07 100 1015.1
20260903222955 83 206 2.6 3.5 0.00 0.14 0.07 100 1015.1
20260903222748 83 206 2.6 3.5 0.00 0.14 0.07 100 1015.1
20260903222248 82 225 3.5 5.2 0.00 0.14 0.07 100 1014.9
20260903221748 83 213 2.6 4.3 0.00 0.14 0.07 100 1014.9
20260903221506 83 241 1.7 6.1 0.00 0.14 0.07 100 1014.7
20260903221248 83 241 1.7 6.1 0.00 0.14 0.07 100 1014.7
20260903220748 83 161 3.5 3.5 0.00 0.14 0.07 100 1014.6
20260903220248 84 237 0.9 2.6 0.00 0.14 0.07 100 1014.4
20260903215748 83 181 1.7 2.6 0.00 0.14 0.07 100 1014.5
20260903215248 84 108 0.0 1.7 0.00 0.14 0.07 100 1014.4
20260903214948 83 88 0.0 3.5 0.00 0.14 0.07 100 1014.4
20260903214748 83 88 0.0 3.5 0.00 0.14 0.07 100 1014.4
20260903214533 84 137 1.7 2.6 0.00 0.14 0.07 100 1014.4
20260903214248 84 137 1.7 2.6 0.00 0.14 0.07 100 1014.4
20260903213748 83 122 1.7 2.6 0.00 0.14 0.07 100 1014.3
20260903213539 84 163 2.6 2.6 0.00 0.14 0.07 100 1014.2
20260903213248 84 163 2.6 2.6 0.00 0.14 0.07 100 1014.2
20260903213047 84 94 0.9 2.6 0.00 0.14 0.07 100 1014.1
20260903212748 84 94 0.9 2.6 0.00 0.14 0.07 100 1014.1
20260903212626 84 99 2.6 2.6 0.00 0.14 0.07 100 1014.1
20260903212248 84 99 2.6 2.6 0.00 0.14 0.07 100 1014.1
20260903211748 84 78 0.0 0.0 0.00 0.14 0.07 100 1014.0
20260903211248 84 78 0.0 0.0 0.00 0.14 0.07 100 1014.0
20260903211116 84 78 0.0 0.0 0.00 0.14 0.07 100 1013.9
20260903210748 84 78 0.0 0.0 0.00 0.14 0.07 100 1013.9
20260903210248 84 78 0.0 0.0 0.00 0.14 0.07 100 1014.1
20260903210119 84 78 0.0 0.0 0.00 0.14 0.07 100 1014.1
20260903205748 84 78 0.0 0.0 0.00 0.14 0.07 100 1014.1
20260903205716 84 78 0.0 1.7 0.00 0.14 0.07 100 1014.1
20260903205248 84 78 0.0 1.7 0.00 0.14 0.07 100 1014.1
20260903205101 84 67 0.9 3.5 0.00 0.14 0.07 100 1014.3
20260903204748 84 67 0.9 3.5 0.00 0.14 0.07 100 1014.3
20260903204248 84 87 0.0 1.7 0.00 0.14 0.07 100 1014.3
20260903203950 85 74 1.7 1.7 0.01 0.14 0.07 100 1014.5
20260903203748 85 74 1.7 1.7 0.01 0.14 0.07 100 1014.5
20260903203248 85 66 0.0 0.9 0.01 0.14 0.07 100 1014.5
20260903203035 85 150 0.9 1.7 0.01 0.14 0.07 100 1014.5
20260903202748 85 150 0.9 1.7 0.01 0.14 0.07 100 1014.5
20260903202657 85 139 0.0 2.6 0.01 0.14 0.07 100 1014.5
20260903202248 85 139 0.0 2.6 0.01 0.14 0.07 100 1014.5
20260903202119 86 225 2.6 2.6 0.01 0.14 0.07 100 1014.5
20260903201748 86 225 2.6 2.6 0.01 0.14 0.07 100 1014.5
20260903201536 86 203 0.0 0.9 0.01 0.14 0.07 100 1014.6